Flag for U.S.A. Weather past 2 weeks in Cheyenne, Wyoming, U.S.A.

Now
42 °F

Clear.


Feels Like: 38 °F
Forecast: 42 / 62 °F
Wind: 7 mph from Northwest

Location: Cheyenne Airport

Current Time: Jan 25, 2015 at 7:42:04 PM

Latest Report: Jan 25, 2015 at 6:53 PM


Visibility: 10 mi

Pressure: 30.14 "Hg

Humidity: 53%

Dew point: 26 °F

Location of CheyenneLocation

Historic Weather in Cheyenne — Graph

°F

Cheyenne temperature yesterday

Maximum temperature yesterday: 47 °F (at 12:53 PM)
Minimum temperature yesterday: 31 °F (at 3:53 AM)
Average temperature yesterday: 39 °F

Past Weeks' High & Low Weather Summary

 TemperatureHumidityPressure
High53 °F (Jan 15, 12:53 PM)93% (Jan 11, 6:53 PM)30.47 "Hg (Jan 11, 6:53 PM)
Low7 °F (Jan 22, 3:53 AM)12% (Jan 22, 1:53 PM)29.76 "Hg (Jan 16, 1:53 PM)
Average33 °F52%30.16 "Hg
* Reported Jan 10 5:53 PM — Jan 25 5:53 PM, Cheyenne, Weather by CustomWeather, © 2014

Note: Actual official high and low records may vary slightly from our data, if they occured in-between our weather recording intervals... More about our weather records

Advertising

Cheyenne weather history for previous 24 hours

 ConditionsComfort  
Time TempWeatherWind HumidityBarometerVisibility
5:53 PM
Jan 25
44 °FClear.9 mph49%30.13 "Hg10 mi
4:53 PM46 °FSunny.14 mph48%30.10 "Hg10 mi
3:53 PM49 °FSunny.18 mph43%30.08 "Hg10 mi
2:53 PM51 °FSunny.15 mph39%30.04 "Hg10 mi
1:53 PM51 °FSunny.16 mph39%30.03 "Hg10 mi
12:53 PM51 °FSunny.21 mph38%30.04 "Hg10 mi
11:53 AM49 °FOvercast.23 mph41%30.07 "Hg10 mi
10:53 AM47 °FPartly sunny.16 mph44%30.10 "Hg10 mi
9:53 AM44 °FOvercast.17 mph49%30.09 "Hg10 mi
8:53 AM41 °FOvercast.15 mph53%30.12 "Hg10 mi
7:53 AM40 °FOvercast.20 mph51%30.10 "Hg10 mi
6:53 AM38 °FPassing clouds.17 mph55%30.11 "Hg10 mi
5:53 AM36 °FClear.13 mph57%30.11 "Hg10 mi
4:53 AM35 °FClear.12 mph61%30.13 "Hg10 mi
3:53 AM34 °FClear.10 mph67%30.10 "Hg10 mi
2:53 AM36 °FPassing clouds.18 mph64%30.09 "Hg10 mi
1:53 AM36 °FClear.16 mph64%30.07 "Hg10 mi
12:53 AM36 °FClear.14 mph64%30.06 "Hg10 mi
11:53 PM
Jan 24
38 °FOvercast.20 mph63%30.07 "Hg10 mi
10:53 PM39 °FMostly cloudy.22 mph57%30.08 "Hg10 mi
9:53 PM39 °FOvercast.14 mph57%30.08 "Hg10 mi
8:53 PM34 °FOvercast.12 mph76%30.10 "Hg10 mi
7:53 PM39 °FPassing clouds.15 mph55%30.09 "Hg10 mi
Weather by CustomWeather, © 2014

See weather overviewHow to use our weather pages